C969 KSLC-KOGD

Flight info

Callsign C969
Flight time 0h 16m
Altitude 10000
Route JEMKU
Aircraft C172/L-SFG/C

Departure

Time 2026-05-05 04:05
Airport Salt Lake City International Airport (KSLC)

Arrival

Time 2026-05-05 04:22
Airport Ogden Hinckley Airport (KOGD)
Time Latitude Longitude Altitude Speed Heading
2026-05-05 03:56 40.80505 -111.98250 4229 ft 0 kts 174°
2026-05-05 04:01 40.80522 -111.98237 4229 ft 10 kts 340°
2026-05-05 04:01 40.80589 -111.98240 4228 ft 10 kts 45°
2026-05-05 04:01 40.80601 -111.98215 4228 ft 0 kts 59°
2026-05-05 04:02 40.80605 -111.98208 4228 ft 5 kts 58°
2026-05-05 04:02 40.80633 -111.98139 4227 ft 10 kts 56°
2026-05-05 04:02 40.80662 -111.98051 4227 ft 16 kts 126°
2026-05-05 04:02 40.80637 -111.97916 4228 ft 9 kts 91°
2026-05-05 04:03 40.80633 -111.97853 4227 ft 3 kts 95°
2026-05-05 04:03 40.80632 -111.97826 4226 ft 3 kts 93°
2026-05-05 04:03 40.80631 -111.97812 4226 ft 0 kts 93°
2026-05-05 04:04 40.80632 -111.97772 4226 ft 14 kts 88°
2026-05-05 04:04 40.80575 -111.97679 4228 ft 23 kts 174°
2026-05-05 04:04 40.80267 -111.97640 4230 ft 64 kts 175°
2026-05-05 04:04 40.79776 -111.97577 4338 ft 72 kts 173°
2026-05-05 04:05 40.79255 -111.97404 4441 ft 78 kts 153°
2026-05-05 04:05 40.78870 -111.96944 4615 ft 77 kts 116°
2026-05-05 04:05 40.78866 -111.96220 4696 ft 87 kts 63°
2026-05-05 04:05 40.79331 -111.95766 4851 ft 87 kts
2026-05-05 04:06 40.79925 -111.95835 5033 ft 85 kts 352°
2026-05-05 04:06 40.80508 -111.95918 5192 ft 86 kts 351°
2026-05-05 04:06 40.81110 -111.96040 5358 ft 87 kts 347°
2026-05-05 04:06 40.81707 -111.96228 5452 ft 96 kts 344°
2026-05-05 04:07 40.82399 -111.96436 5518 ft 104 kts 356°
2026-05-05 04:07 40.83128 -111.96457 5657 ft 105 kts
2026-05-05 04:07 40.83769 -111.96029 5749 ft 110 kts 53°
2026-05-05 04:07 40.83973 -111.94974 5647 ft 127 kts 91°
2026-05-05 04:08 40.83839 -111.93876 5773 ft 114 kts 101°
2026-05-05 04:08 40.83704 -111.92880 5898 ft 107 kts 100°
2026-05-05 04:08 40.83559 -111.91888 5677 ft 121 kts 103°
2026-05-05 04:08 40.83615 -111.90804 5729 ft 119 kts 54°
2026-05-05 04:09 40.84328 -111.90413 5838 ft 114 kts 356°
2026-05-05 04:09 40.85127 -111.90487 5824 ft 119 kts 355°
2026-05-05 04:09 40.85980 -111.90519 5689 ft 124 kts 359°
2026-05-05 04:09 40.86837 -111.90521 5665 ft 120 kts 359°
2026-05-05 04:10 40.87657 -111.90505 5643 ft 118 kts
2026-05-05 04:10 40.88482 -111.90457 5546 ft 121 kts
2026-05-05 04:10 40.89319 -111.90402 5519 ft 119 kts
2026-05-05 04:10 40.90159 -111.90352 5543 ft 121 kts
2026-05-05 04:11 40.90989 -111.90300 5602 ft 119 kts
2026-05-05 04:11 40.91815 -111.90263 5670 ft 118 kts
2026-05-05 04:11 40.92635 -111.90217 5785 ft 117 kts
2026-05-05 04:11 40.93449 -111.90185 5883 ft 116 kts 359°
2026-05-05 04:12 40.94238 -111.90201 6004 ft 115 kts 358°
2026-05-05 04:12 40.95041 -111.90236 6089 ft 115 kts 356°
2026-05-05 04:12 40.95841 -111.90297 6213 ft 114 kts 355°
2026-05-05 04:12 40.96631 -111.90390 6320 ft 115 kts 352°
2026-05-05 04:13 40.97421 -111.90618 6332 ft 119 kts 342°
2026-05-05 04:13 40.98179 -111.91012 6416 ft 117 kts 335°
2026-05-05 04:13 40.98942 -111.91457 6425 ft 122 kts 334°
2026-05-05 04:13 40.99711 -111.91951 6410 ft 126 kts 333°
2026-05-05 04:14 41.00482 -111.92446 6482 ft 123 kts 333°
2026-05-05 04:14 41.01218 -111.92988 6371 ft 124 kts 328°
2026-05-05 04:14 41.01983 -111.93596 6068 ft 132 kts 329°
2026-05-05 04:14 41.02729 -111.94241 5921 ft 128 kts 324°
2026-05-05 04:15 41.03470 -111.94941 5680 ft 130 kts 323°
2026-05-05 04:15 41.04165 -111.95634 5620 ft 121 kts 322°
2026-05-05 04:15 41.04830 -111.96285 5577 ft 116 kts 323°
2026-05-05 04:15 41.05507 -111.96911 5581 ft 120 kts 325°
2026-05-05 04:16 41.06188 -111.97555 5623 ft 120 kts 323°
2026-05-05 04:16 41.06779 -111.98332 5668 ft 120 kts 311°
2026-05-05 04:16 41.07355 -111.99119 5688 ft 121 kts 316°
2026-05-05 04:16 41.08035 -111.99797 5708 ft 123 kts 334°
2026-05-05 04:17 41.08894 -111.99981 5693 ft 126 kts 359°
2026-05-05 04:17 41.09761 -111.99974 5736 ft 124 kts 359°
2026-05-05 04:17 41.10621 -111.99956 5745 ft 125 kts
2026-05-05 04:17 41.11484 -111.99914 5771 ft 124 kts
2026-05-05 04:18 41.12331 -111.99910 5838 ft 121 kts 360°
2026-05-05 04:18 41.13193 -111.99896 5848 ft 123 kts 359°
2026-05-05 04:18 41.14049 -111.99917 5876 ft 123 kts 356°
2026-05-05 04:18 41.14911 -111.99997 5888 ft 125 kts 355°
2026-05-05 04:19 41.15756 -112.00057 5844 ft 122 kts 357°
2026-05-05 04:19 41.16601 -112.00054 5755 ft 121 kts
2026-05-05 04:19 41.17430 -111.99869 5672 ft 120 kts 21°
2026-05-05 04:19 41.18083 -111.99354 5595 ft 101 kts 33°
2026-05-05 04:20 41.18622 -111.98825 5521 ft 92 kts 38°
2026-05-05 04:20 41.19109 -111.98301 5427 ft 91 kts 38°
2026-05-05 04:20 41.19635 -111.97794 5353 ft 92 kts 22°
2026-05-05 04:20 41.20228 -111.97722 5334 ft 83 kts 341°
2026-05-05 04:21 41.20742 -111.98109 5163 ft 86 kts 326°
2026-05-05 04:21 41.21034 -111.98722 4934 ft 79 kts 262°
2026-05-05 04:21 41.20830 -111.99358 4772 ft 77 kts 239°
2026-05-05 04:21 41.20481 -111.99896 4587 ft 77 kts 224°
2026-05-05 04:22 41.20103 -112.00383 4441 ft 71 kts 224°
2026-05-05 04:22 41.19834 -112.00730 4441 ft 28 kts 224°
2026-05-05 04:22 41.19735 -112.00708 4442 ft 15 kts 135°
2026-05-05 04:22 41.19662 -112.00659 4442 ft 10 kts 148°
2026-05-05 04:23 41.19614 -112.00642 4443 ft 0 kts 181°